[[{"header":{"parameterUnit":"m.s-1","parameterCategory":1,"la1":30.2991,"la2":30.254,"lo1":-89.0895,"lo2":-89.0444,"dy":0.0017,"dx":0.0017,"nx":28,"ny":28,"refTime":"2024-10-01T03:00:00:Z","depth":0,"parameterNumber":2,"parameterNumberName":"U-component_of_WINDS"},"data":[0,0,0,0,0,0,0,0,0,0,0,0,0,0,0,0,0,0,0,0,0,0,0,0,0,0,0,0,0,0,0,0,0,0,0,0,0,0,0,0,0,0,0,0,0,0,0,0,0,0,0,0,0,0,0,0,0,0,-0.8445,-0.8446,0,-0.8546,-0.8547,-0.8548,-0.8564,-0.8563,-0.8562,-0.8561,-0.8667,-0.8671,-0.8674,0,0,0,0,0,0,0,0,0,0,0,0,0,-0.8268,-0.8271,-0.8445,-0.8446,-0.8448,-0.8546,-0.8547,-0.8548,-0.8564,-0.8563,-0.8562,-0.8561,-0.8666,-0.867,-0.8675,0,0,0,0,0,0,0,0,0,0,0,0,0,-0.8354,-0.8272,-0.8445,-0.8467,-0.847,-0.8545,-0.8547,-0.8549,-0.8565,-0.8563,-0.8562,-0.8561,-0.8665,-0.867,-0.8675,-0.8736,0,0,-0.8692,-0.8694,0,0,0,0,0,0,0,0,-0.8349,-0.8361,-0.8463,-0.8466,-0.8469,-0.8541,-0.8523,-0.8612,-0.8565,-0.8529,-0.8561,-0.856,-0.8626,-0.8635,-0.8657,-0.8741,-0.8745,-0.8692,-0.8696,-0.8698,-0.87,0,0,0,0,0,0,0,-0.8343,-0.8357,-0.8485,-0.8464,-0.8468,-0.8473,-0.8483,-0.854,-0.8584,-0.8532,-0.8533,-0.8545,-0.8628,-0.8652,-0.8659,-0.8747,-0.8692,-0.8697,-0.8701,-0.8703,-0.8885,-0.8886,0,0,0,0,0,0,-0.8333,-0.8351,-0.8482,-0.8488,-0.8405,-0.8477,-0.8489,-0.8519,-0.8583,-0.8592,-0.8546,-0.8545,-0.8643,-0.8653,-0.8663,-0.8738,-0.8698,-0.8703,-0.8706,-0.8883,-0.8885,-0.8887,0,0,0,0,0,0,-0.8329,-0.8344,-0.8478,-0.842,-0.8437,-0.8481,-0.8515,-0.8522,-0.8546,-0.8594,-0.8602,-0.8562,-0.8642,-0.8656,-0.8717,-0.8742,-0.8706,-0.8711,-0.8881,-0.8884,-0.8886,-0.8888,0,0,0,0,0,0,-0.8324,-0.8343,-0.8366,-0.8421,-0.844,-0.853,-0.8517,-0.8525,-0.8555,-0.8555,-0.8611,-0.8619,-0.8642,-0.8709,-0.8723,-0.8749,-0.8715,-0.8879,-0.8882,-0.8885,-0.8886,-0.889,-0.8894,0,0,0,0,0,-0.8318,-0.8364,-0.8367,-0.8383,-0.847,-0.8531,-0.8543,-0.8568,-0.8557,-0.8581,-0.8611,-0.8617,-0.8737,-0.8715,-0.8731,-0.8759,-0.8878,-0.8881,-0.8885,-0.8884,-0.8889,-0.8894,0,0,0,0,0,0,-0.8313,-0.8371,-0.8376,-0.8441,-0.8481,-0.8534,-0.8565,-0.8572,-0.8617,-0.8615,-0.8645,-0.8657,-0.8717,-0.8744,-0.8719,-0.882,-0.8806,-0.8813,-0.8801,-0.8806,-0.881,-0.8802,-0.8719,0,0,0,0,0,-0.8319,-0.8363,-0.8412,-0.8464,-0.8484,-0.8521,-0.8548,-0.8564,-0.8607,-0.8624,-0.8659,-0.8701,-0.8748,-0.8778,-0.8824,-0.889,-0.8902,-0.8916,-0.892,-0.8923,-0.8929,-0.8965,-0.8972,-0.8898,-0.8898,-0.8898,0,0,-0.8333,-0.837,-0.8396,-0.8464,-0.8497,-0.8542,-0.8535,-0.8583,-0.8617,-0.8631,-0.8692,-0.8719,-0.8767,-0.8831,-0.8861,-0.8855,-0.8952,-0.8928,-0.893,-0.8934,-0.8969,-0.8976,-0.8982,-0.89,-0.89,-0.89,0,0,-0.8381,-0.8413,-0.846,-0.8493,-0.8542,-0.8566,-0.8577,-0.8628,-0.8647,-0.8707,-0.8719,-0.8759,-0.884,-0.8874,-0.8901,-0.896,-0.8967,-0.8974,-0.8995,-0.9029,-0.9035,-0.904,-0.9061,-0.9068,-0.898,-0.898,-0.898,0,-0.8392,-0.846,-0.8484,-0.8531,-0.8561,-0.8574,-0.8622,-0.8652,-0.8714,-0.8735,-0.8727,-0.8827,-0.8861,-0.8932,-0.8946,-0.8968,-0.8982,-0.8969,-0.9032,-0.9038,-0.9043,-0.9063,-0.9071,-0.898,-0.898,-0.898,-0.898,0,-0.8471,-0.8517,-0.855,-0.8608,-0.8641,-0.8688,-0.8719,-0.875,-0.8762,-0.8787,-0.8848,-0.8888,-0.8942,-0.896,-0.8973,-0.9033,-0.9028,-0.9026,-0.9013,-0.905,-0.907,-0.9078,-0.8981,-0.8981,-0.8981,-0.8981,0,0,-0.852,-0.8589,-0.8601,-0.8627,-0.8681,-0.8718,-0.8765,-0.8817,-0.8843,-0.8884,-0.8925,-0.8992,-0.899,-0.9021,-0.9038,-0.9068,-0.9112,-0.9062,-0.9064,-0.907,-0.918,-0.9181,-0.9189,-0.9116,-0.9118,-0.9119,-0.9175,0,-0.8574,-0.8659,-0.8681,-0.8754,-0.8797,-0.881,-0.8851,-0.8889,-0.8913,-0.8953,-0.898,-0.9027,-0.9021,-0.9039,-0.907,-0.91,-0.9134,-0.9096,-0.9155,-0.9156,-0.9142,-0.92,-0.9202,-0.9253,-0.9183,-0.9184,-0.9185,0,-0.865,-0.8692,-0.8768,-0.8815,-0.8834,-0.8871,-0.8919,-0.8958,-0.9001,-0.9016,-0.905,-0.9063,-0.9114,-0.9097,-0.9166,-0.914,-0.9165,-0.9183,-0.9186,-0.9193,-0.9173,-0.9208,-0.927,-0.9278,-0.9198,-0.9197,-0.9196,0,-0.8678,-0.8753,-0.8808,-0.883,-0.8887,-0.8912,-0.8937,-0.8979,-0.9008,-0.905,-0.907,-0.9118,-0.9144,-0.9181,-0.9207,-0.9192,-0.9274,-0.926,-0.9288,-0.9288,-0.9306,-0.9304,-0.9372,-0.9321,-0.9321,-0.9321,-0.9321,0,-0.8736,-0.8782,-0.8821,-0.8855,-0.8907,-0.8932,-0.8983,-0.9008,-0.9045,-0.9084,-0.9098,-0.9134,-0.9166,-0.9207,-0.9228,-0.9282,-0.9294,-0.9308,-0.9313,-0.9307,-0.9305,-0.9324,-0.9321,-0.9323,-0.9323,-0.9322,-0.9322,0,-0.8777,-0.8805,-0.8865,-0.8913,-0.8927,-0.8963,-0.9004,-0.9037,-0.9061,-0.911,-0.9123,-0.9161,-0.921,-0.9239,-0.9301,-0.9315,-0.9374,-0.9378,-0.9359,-0.9362,-0.9389,-0.9386,-0.9472,-0.9484,-0.9425,-0.9425,-0.9425,0,-0.8813,-0.8848,-0.8899,-0.8926,-0.8951,-0.8994,-0.9023,-0.9049,-0.9079,-0.913,-0.9157,-0.9206,-0.9247,-0.9324,-0.9357,-0.9404,-0.9409,-0.9436,-0.9417,-0.9409,-0.941,-0.9407,-0.9411,-0.944,-0.944,-0.9441,-0.9441,0,-0.8873,-0.8885,-0.8926,-0.8972,-0.9006,-0.9044,-0.9081,-0.9102,-0.9134,-0.9167,-0.9217,-0.9248,-0.931,-0.9359,-0.9409,-0.9435,-0.9443,-0.9446,-0.9456,-0.945,-0.9438,-0.9445,-0.9369,-0.9445,-0.9444,-0.9444,-0.9444,-0.9444,-0.8913,-0.8944,-0.8985,-0.903,-0.9061,-0.9095,-0.9128,-0.9155,-0.9197,-0.9249,-0.9261,-0.9313,-0.9354,-0.9421,-0.9448,-0.9489,-0.9485,-0.9498,-0.9502,-0.9505,-0.9505,-0.9431,-0.9498,-0.9498,-0.9498,-0.9498,-0.9498,0,-0.8974,-0.9,-0.9041,-0.9092,-0.9128,-0.9131,-0.9173,-0.9202,-0.9247,-0.9284,-0.9324,-0.938,-0.9427,-0.9462,-0.951,-0.9536,-0.9541,-0.9548,-0.9547,-0.9552,-0.9506,-0.9494,-0.9543,-0.9543,-0.9543,-0.9543,-0.9543,-0.9543,-0.901,-0.9063,-0.9079,-0.9148,-0.9174,-0.9224,-0.9247,-0.9279,-0.9308,-0.937,-0.9409,-0.9431,-0.9468,-0.9518,-0.9561,-0.9571,-0.9588,-0.9594,-0.9604,-0.9561,-0.9556,-0.9551,-0.9539,-0.9597,-0.9597,-0.9647,-0.9647,-0.9647]},{"header":{"parameterUnit":"m.s-1","parameterCategory":1,"la1":30.2991,"la2":30.254,"lo1":-89.0895,"lo2":-89.0444,"dy":0.0017,"dx":0.0017,"nx":28,"ny":28,"refTime":"2024-10-01T03:00:00:Z","depth":0,"parameterNumber":3,"parameterNumberName":"V-component_of_WINDS"},"data":[0,0,0,0,0,0,0,0,0,0,0,0,0,0,0,0,0,0,0,0,0,0,0,0,0,0,0,0,0,0,0,0,0,0,0,0,0,0,0,0,0,0,0,0,0,0,0,0,0,0,0,0,0,0,0,0,0,0,-3.7359,-3.736,0,-3.7479,-3.7481,-3.7482,-3.7438,-3.7436,-3.7433,-3.743,-3.7552,-3.7558,-3.7564,0,0,0,0,0,0,0,0,0,0,0,0,0,-3.7089,-3.7094,-3.7358,-3.736,-3.7362,-3.7479,-3.7481,-3.7482,-3.7439,-3.7435,-3.7432,-3.7429,-3.7551,-3.7557,-3.7564,0,0,0,0,0,0,0,0,0,0,0,0,0,-3.7208,-3.7096,-3.7358,-3.7354,-3.7355,-3.7479,-3.7481,-3.7483,-3.7439,-3.7435,-3.7431,-3.7428,-3.7548,-3.7557,-3.7565,-3.77,0,0,-3.7592,-3.7595,0,0,0,0,0,0,0,0,-3.7201,-3.7217,-3.7353,-3.7354,-3.7356,-3.744,-3.743,-3.7556,-3.7441,-3.7407,-3.743,-3.7426,-3.7518,-3.7529,-3.756,-3.7706,-3.7711,-3.7592,-3.7598,-3.7601,-3.7604,0,0,0,0,0,0,0,-3.7193,-3.7212,-3.7406,-3.7355,-3.7357,-3.7346,-3.7358,-3.7454,-3.7484,-3.741,-3.7407,-3.7422,-3.7518,-3.7552,-3.7563,-3.7713,-3.7592,-3.76,-3.7605,-3.7609,-3.7976,-3.798,0,0,0,0,0,0,-3.7184,-3.7205,-3.7402,-3.741,-3.7267,-3.7354,-3.7368,-3.7417,-3.7483,-3.7489,-3.7425,-3.7419,-3.7539,-3.7553,-3.7567,-3.773,-3.7601,-3.761,-3.7615,-3.7971,-3.7977,-3.7982,0,0,0,0,0,0,-3.7178,-3.7202,-3.7397,-3.7307,-3.7331,-3.7363,-3.7418,-3.7421,-3.7456,-3.7495,-3.7499,-3.7455,-3.7537,-3.7555,-3.7668,-3.7734,-3.7613,-3.7621,-3.7966,-3.7973,-3.7979,-3.8058,0,0,0,0,0,0,-3.7171,-3.72,-3.7252,-3.7309,-3.7336,-3.7497,-3.7422,-3.7427,-3.7471,-3.7464,-3.7524,-3.753,-3.7535,-3.7655,-3.7676,-3.7744,-3.7628,-3.796,-3.7969,-3.7977,-3.8049,-3.8066,-3.8081,0,0,0,0,0,-3.7161,-3.7269,-3.7255,-3.7279,-3.7402,-3.7501,-3.7516,-3.7521,-3.7476,-3.7529,-3.7554,-3.7528,-3.7723,-3.7667,-3.7691,-3.7762,-3.7956,-3.7966,-3.7976,-3.8042,-3.8063,-3.808,0,0,0,0,0,0,-3.7219,-3.7276,-3.7261,-3.739,-3.7441,-3.7493,-3.7559,-3.7543,-3.7606,-3.7598,-3.76,-3.7614,-3.773,-3.7757,-3.7693,-3.7896,-3.7833,-3.7848,-3.7875,-3.7895,-3.791,-3.7902,-3.7635,0,0,0,0,0,-3.7247,-3.7323,-3.7368,-3.7478,-3.7504,-3.7527,-3.7571,-3.757,-3.7622,-3.7643,-3.7676,-3.7728,-3.7801,-3.7849,-3.7918,-3.8052,-3.8065,-3.8113,-3.8128,-3.8141,-3.8155,-3.8229,-3.8251,-3.8015,-3.8015,-3.8015,0,0,-3.7305,-3.7345,-3.7393,-3.749,-3.7529,-3.7608,-3.7546,-3.7631,-3.769,-3.7656,-3.7765,-3.7791,-3.7849,-3.7973,-3.803,-3.7999,-3.8223,-3.8154,-3.8164,-3.8171,-3.8242,-3.8264,-3.8284,-3.8022,-3.8021,-3.802,0,0,-3.7451,-3.7489,-3.7585,-3.7625,-3.7686,-3.7701,-3.7724,-3.7779,-3.7795,-3.7905,-3.7882,-3.795,-3.8076,-3.8118,-3.8156,-3.8319,-3.8298,-3.8341,-3.8424,-3.8496,-3.8515,-3.8531,-3.859,-3.8611,-3.8354,-3.8355,-3.8355,0,-3.7515,-3.7633,-3.7636,-3.7724,-3.7768,-3.7741,-3.7839,-3.7878,-3.7958,-3.7988,-3.7953,-3.811,-3.8147,-3.8282,-3.8321,-3.8353,-3.8379,-3.8335,-3.8512,-3.8528,-3.8544,-3.86,-3.8622,-3.836,-3.8359,-3.8358,-3.8358,0,-3.771,-3.7792,-3.7862,-3.7941,-3.7992,-3.8084,-3.8101,-3.8153,-3.8147,-3.8166,-3.8278,-3.8321,-3.8399,-3.8431,-3.8426,-3.8565,-3.8544,-3.851,-3.8447,-3.8571,-3.8624,-3.8646,-3.8367,-3.8365,-3.8363,-3.8362,0,0,-3.7896,-3.7976,-3.8001,-3.8037,-3.8102,-3.8166,-3.8256,-3.8333,-3.8378,-3.8434,-3.851,-3.8617,-3.8587,-3.863,-3.863,-3.8693,-3.882,-3.8651,-3.8652,-3.8682,-3.8977,-3.9003,-3.9028,-3.8806,-3.881,-3.8813,-3.8972,0,-3.8048,-3.8209,-3.8214,-3.8361,-3.8437,-3.8414,-3.8493,-3.8541,-3.8561,-3.8628,-3.8649,-3.8726,-3.8679,-3.8705,-3.8766,-3.8792,-3.8879,-3.878,-3.8877,-3.8881,-3.8865,-3.9055,-3.9083,-3.9232,-3.8993,-3.8997,-3.8999,0,-3.8247,-3.8311,-3.8466,-3.852,-3.8553,-3.8624,-3.8695,-3.876,-3.8814,-3.8824,-3.8873,-3.8863,-3.8956,-3.8889,-3.9017,-3.8949,-3.8989,-3.9007,-3.9013,-3.9024,-3.8948,-3.9072,-3.9279,-3.9302,-3.9032,-3.9029,-3.9027,0,-3.8369,-3.8493,-3.8602,-3.8633,-3.8699,-3.875,-3.878,-3.883,-3.8877,-3.8939,-3.8969,-3.904,-3.908,-3.9136,-3.9146,-3.9096,-3.9274,-3.9208,-3.9285,-3.9286,-3.9325,-3.9323,-3.9543,-3.9349,-3.9349,-3.9348,-3.9348,0,-3.854,-3.8636,-3.8658,-3.8725,-3.8832,-3.8837,-3.8942,-3.8968,-3.9013,-3.9084,-3.9067,-3.9135,-3.9143,-3.9213,-3.9221,-3.9326,-3.9344,-3.9355,-3.9356,-3.9357,-3.9356,-3.9384,-3.9375,-3.9354,-3.9353,-3.9352,-3.9351,0,-3.8694,-3.8713,-3.883,-3.8884,-3.89,-3.8976,-3.9022,-3.9086,-3.9104,-3.9194,-3.9216,-3.9244,-3.9325,-3.934,-3.9436,-3.9441,-3.9567,-3.9557,-3.955,-3.9549,-3.9626,-3.9619,-3.9873,-3.9907,-3.969,-3.9692,-3.9694,0,-3.8803,-3.8876,-3.8938,-3.8985,-3.9018,-3.9094,-3.9141,-3.9148,-3.9198,-3.9266,-3.9322,-3.9402,-3.9466,-3.9596,-3.9625,-3.9698,-3.969,-3.9774,-3.9701,-3.97,-3.9693,-3.9689,-3.9697,-3.9789,-3.9791,-3.9793,-3.9794,0,-3.8993,-3.8999,-3.9068,-3.9142,-3.9199,-3.9257,-3.9311,-3.9351,-3.9365,-3.9422,-3.9506,-3.9555,-3.9653,-3.9732,-3.9805,-3.9835,-3.9818,-3.9817,-3.9839,-3.9842,-3.9835,-3.9841,-3.9589,-3.9811,-3.981,-3.9808,-3.9808,-3.9807,-3.9129,-3.9193,-3.9247,-3.9325,-3.9367,-3.9419,-3.9483,-3.9509,-3.9579,-3.966,-3.9659,-3.9751,-3.9803,-3.9899,-3.9934,-4.0005,-3.9979,-4.001,-4.0019,-4.0027,-4.0035,-3.9822,-4.0018,-4.0018,-4.0017,-4.0017,-4.0017,0,-3.9319,-3.9353,-3.9425,-3.9503,-3.9564,-3.9543,-3.9602,-3.9655,-3.9736,-3.9787,-3.9851,-3.9946,-4.0023,-4.0058,-4.0134,-4.0184,-4.0178,-4.0204,-4.0201,-4.0208,-4.0054,-4.0028,-4.0208,-4.0208,-4.0208,-4.0208,-4.0207,-4.0207,-3.9426,-3.9535,-3.9547,-3.9676,-3.9709,-3.9799,-3.9835,-3.9883,-3.9924,-4.0032,-4.0096,-4.0118,-4.0163,-4.0242,-4.0311,-4.0319,-4.0349,-4.0379,-4.0383,-4.0238,-4.0219,-4.0201,-4.0176,-4.0385,-4.0385,-4.0532,-4.0534,-4.0535]}]]